Wind_Speed
33 33 34 36 37 38 39 39 40 38 38 36 36 36 36 36 37 37 38 38 38 38 39 40 40 40 40 40 41 41 41 41 41 42 44 44 45 46 47 48 49 49 49 50
34 33 33 34 36 37 38 39 40 39 38 36 37 37 36 36 36 36 36 37 37 37 38 39 40 40 40 41 41 41 42 42 43 43 44 44 45 46 48 48 49 49 49 49
33 32 33 35 34 34 36 36 37 38 37 38 38 37 36 36 35 35 36 36 36 37 37 38 39 40 40 41 41 42 42 43 43 44 44 44 46 47 47 48 48 47 48 49
33 34 34 34 34 35 35 36 37 36 36 36 38 38 37 37 36 36 36 36 36 37 37 37 38 39 40 41 42 42 43 43 44 44 45 45 45 45 45 46 47 47 48 48
31 34 34 34 34 34 34 35 36 36 36 36 36 38 38 37 37 37 37 36 36 37 37 37 37 38 39 40 41 42 42 43 44 44 44 45 45 45 45 46 46 47 47 47
30 31 31 31 31 32 33 34 34 35 35 35 36 37 37 36 37 38 37 37 36 36 36 37 36 37 37 39 40 41 42 43 43 44 45 45 45 45 45 46 46 46 46 46
31 30 29 29 29 30 31 32 32 32 33 34 35 36 37 37 37 38 37 37 37 37 37 37 37 37 38 38 39 40 41 42 42 43 44 44 45 45 45 46 45 45 45 45
31 30 28 27 27 29 30 30 31 31 31 31 33 34 35 36 36 36 36 37 37 37 37 37 38 38 38 39 39 40 41 42 43 43 44 44 44 44 45 45 45 44 44 44
29 28 26 26 26 27 28 29 30 30 30 31 32 33 33 34 35 36 36 36 37 38 38 38 39 39 39 39 40 40 41 42 42 41 42 43 43 43 43 43 43 42 41 41
26 26 26 25 25 26 26 27 28 29 30 30 31 32 33 34 35 36 36 37 38 38 38 39 39 39 39 38 39 40 40 40 40 40 41 41 41 41 41 41 41 40 39 40
23 25 26 26 26 26 26 27 27 28 29 30 31 32 33 34 35 36 36 37 37 38 39 39 39 38 38 38 38 38 39 39 39 39 39 39 39 39 39 39 39 38 38 39
21 23 24 25 26 26 27 28 28 28 29 30 31 31 32 32 33 34 35 36 36 36 37 37 37 37 37 37 37 37 37 37 37 37 38 38 38 38 38 38 38 38 39 39
20 21 23 24 25 26 27 28 29 29 29 29 30 30 30 30 31 32 33 34 34 34 34 35 35 35 36 36 36 36 36 36 35 36 36 37 37 36 36 37 38 38 38 37
20 21 21 23 24 26 27 27 28 29 29 29 29 30 30 29 29 30 31 31 32 32 33 34 34 34 34 34 34 34 34 34 34 34 35 35 35 35 35 35 36 36 36 36
20 20 21 21 22 23 24 25 26 27 27 28 28 28 29 29 29 29 29 30 30 31 32 33 33 33 32 32 32 32 33 33 33 34 34 34 34 34 34 34 34 34 34 34
20 20 20 20 20 20 21 22 23 24 25 26 26 26 26 27 27 27 28 28 29 29 30 30 30 30 31 31 31 32 32 32 33 33 33 33 33 33 32 32 32 33 32 32
17 18 18 18 19 20 20 21 22 24 24 24 25 25 26 26 25 25 25 26 26 27 27 28 28 29 29 30 30 30 31 31 31 31 31 31 31 30 30 31 30 30 30 30
17 17 17 17 19 20 20 21 21 23 23 23 23 24 24 25 25 24 24 24 25 25 26 27 28 28 28 29 29 29 29 29 29 29 29 29 29 29 29 29 28 28 29 29
16 16 17 18 19 19 20 20 20 21 22 23 23 24 24 24 24 25 25 25 26 26 26 27 28 28 28 28 27 27 28 28 28 29 29 29 28 29 29 28 28 28 29 30
17 18 18 18 19 19 19 20 21 21 21 22 23 23 23 23 23 24 24 25 25 25 25 26 26 27 27 27 27 26 26 26 27 27 27 27 27 28 28 28 28 29 30 30
18 18 18 19 19 19 19 20 20 20 21 21 22 23 23 22 23 23 24 24 24 24 24 25 25 26 26 26 26 26 26 26 26 26 26 26 27 27 27 27 27 28 29 29
19 19 19 19 19 19 19 19 20 20 20 21 21 22 23 22 22 22 22 23 23 24 24 24 24 24 24 24 25 25 26 26 26 26 26 26 26 26 26 26 27 27 27 27
18 18 19 19 18 19 19 19 20 20 20 20 20 21 22 22 22 21 22 22 23 23 23 23 23 23 23 23 24 24 25 25 25 25 24 24 24 24 25 25 25 25 25 25
17 18 18 18 19 19 19 20 20 20 21 21 21 21 21 21 21 21 22 22 22 22 22 22 22 23 23 23 22 23 23 23 23 23 23 23 23 23 23 23 23 23 23 23
17 17 17 18 18 18 19 19 20 20 20 20 20 20 20 21 21 21 21 21 22 22 22 23 22 22 22 22 22 22 22 22 22 22 22 22 22 22 22 22 22 22 21 21
17 17 17 17 17 17 18 17 18 18 18 19 19 20 20 20 21 21 21 21 22 22 22 22 22 21 22 22 22 22 22 21 21 21 21 21 21 21 21 21 21 21 20 20
17 17 17 16 16 16 16 16 16 16 17 18 18 19 19 19 20 20 20 20 20 20 20 20 20 20 21 21 21 21 21 21 21 21 21 21 21 20 20 20 20 20 20 20
Wind_Direction
231 232 234 235 235 236 238 239 241 243 246 246 247 248 250 251 251 251 252 253 253 252 251 251 251 252 254 255 257 258 259 260 262 264 265 266 268 269 270 272 274 276 277 278
233 233 233 234 235 237 238 240 241 243 244 246 248 248 250 252 251 252 252 253 252 252 251 250 251 252 254 255 257 258 259 260 261 264 266 267 269 271 271 273 275 276 277 278
233 234 233 234 235 238 239 239 242 243 244 245 247 249 250 250 250 251 252 252 251 251 251 252 252 252 253 254 256 257 258 260 262 264 266 268 269 271 272 273 275 276 277 278
236 235 237 237 238 239 239 239 240 241 242 244 246 247 248 249 249 249 251 252 252 252 252 253 253 253 254 255 256 258 258 260 263 265 267 269 271 272 273 274 275 276 278 279
236 237 240 240 240 240 240 240 241 243 243 245 246 246 248 250 250 250 250 251 252 252 252 254 255 255 256 256 257 259 259 261 263 265 267 269 270 272 273 274 276 278 279 280
237 237 238 237 239 240 241 242 240 241 243 244 245 246 246 248 249 249 250 251 250 251 252 254 256 257 258 258 259 260 261 262 264 265 267 269 270 271 273 275 276 278 279 280
239 240 239 238 238 238 239 240 240 241 241 243 244 245 245 247 249 250 251 252 250 251 253 255 257 259 260 260 262 263 264 264 265 267 268 269 271 271 272 274 276 278 279 280
241 242 240 240 240 239 239 240 240 242 242 243 243 244 245 247 249 250 251 252 252 253 254 256 259 260 261 261 263 264 266 267 267 268 270 270 271 272 273 274 276 277 279 280
242 241 241 241 241 240 240 241 241 242 244 245 246 247 247 248 249 250 252 253 253 254 256 258 260 261 262 263 265 266 267 268 269 270 270 271 271 272 272 274 275 277 278 279
239 239 239 240 242 242 243 243 243 244 245 247 248 248 250 250 250 251 252 253 254 255 256 258 260 261 263 265 267 267 268 269 269 268 269 270 271 271 272 273 274 276 277 279
243 243 241 240 242 244 244 245 247 247 247 248 250 250 251 251 252 253 253 253 254 255 257 258 260 262 263 265 266 267 267 266 267 267 267 268 268 269 270 271 273 275 278 280
246 245 243 242 243 245 247 247 248 250 250 250 250 251 252 252 253 254 254 254 254 254 257 259 260 261 263 265 266 266 266 266 267 266 267 266 266 268 269 271 274 277 279 282
246 246 245 246 247 248 249 250 250 251 251 251 251 251 252 253 254 255 255 255 255 255 257 259 261 262 264 265 265 266 266 266 266 266 267 267 268 269 270 272 275 278 280 282
247 248 249 250 250 251 251 251 251 251 251 251 251 252 253 256 257 257 256 256 257 258 260 261 261 262 264 264 264 265 265 265 266 267 267 268 269 270 271 272 274 277 280 282
250 251 251 252 253 253 253 252 251 251 251 252 253 254 255 256 256 256 257 259 260 261 262 262 262 262 262 262 263 265 265 266 267 269 269 269 270 271 271 272 274 277 279 281
252 253 253 253 252 252 253 252 251 251 252 254 254 255 256 256 256 256 259 260 262 262 262 261 261 260 260 261 262 264 266 267 268 269 268 268 269 270 271 272 275 277 280 282
253 253 254 254 254 254 256 255 252 251 251 252 253 254 255 257 257 258 259 260 261 262 263 262 262 261 261 263 264 265 266 267 268 268 268 268 269 270 271 273 276 279 281 283
256 256 256 257 257 257 258 258 256 252 251 252 253 254 255 256 258 261 262 262 262 263 264 264 264 264 265 266 266 267 268 269 269 269 269 270 270 271 273 275 277 279 281 283
257 260 261 260 259 258 256 255 255 255 255 255 256 256 257 258 259 262 263 265 267 268 268 267 266 266 266 265 266 268 269 270 270 270 271 271 271 272 274 275 276 278 281 283
259 261 263 262 260 259 258 257 257 259 260 258 258 259 260 261 262 264 266 267 267 267 268 268 268 267 267 266 267 268 269 270 271 271 271 271 273 274 275 276 277 280 282 285
262 262 262 263 262 262 262 260 258 260 261 259 259 259 261 263 265 268 269 268 267 267 268 269 268 268 269 269 269 270 271 271 272 272 272 273 275 276 277 278 279 282 284 286
265 264 263 262 261 261 261 260 259 260 261 259 258 259 262 265 269 271 271 269 268 268 270 271 269 268 269 270 270 270 271 272 273 273 273 274 275 276 277 279 281 283 285 287
265 264 263 263 262 261 260 259 259 260 260 259 260 262 264 266 268 270 271 270 269 270 271 271 269 268 269 270 271 271 272 272 272 273 273 274 275 276 279 280 282 284 287 289
266 265 263 263 264 263 263 262 260 260 261 261 262 264 266 267 268 269 270 270 270 270 271 270 270 271 271 271 272 273 274 273 273 273 274 274 276 278 281 282 284 285 287 289
267 266 264 264 265 265 265 263 261 260 261 262 263 265 266 268 270 271 272 271 271 272 272 271 271 270 269 269 271 274 274 274 274 273 273 274 276 279 281 283 284 284 286 288
267 267 266 266 267 267 265 263 262 263 262 263 264 266 268 270 270 271 272 272 273 273 272 270 268 266 266 268 270 272 272 272 273 273 273 274 276 279 280 282 282 282 284 287
267 265 265 265 266 264 262 263 264 265 266 266 267 267 269 271 272 272 272 272 273 273 271 269 267 265 265 267 269 269 270 271 272 273 274 274 276 278 280 281 282 282 284 287
Height
5568 5572 5576 5581 5586 5589 5593 5596 5601 5606 5609 5614 5617 5620 5623 5626 5629 5632 5634 5636 5638 5641 5643 5645 5647 5649 5650 5652 5653 5654 5655 5656 5657 5657 5657 5657 5657 5657 5656 5655 5654 5653 5651 5649
5561 5565 5568 5572 5577 5581 5584 5588 5591 5595 5600 5605 5608 5611 5613 5616 5618 5621 5623 5626 5628 5629 5631 5633 5635 5637 5639 5641 5642 5643 5644 5645 5645 5646 5646 5646 5646 5645 5644 5643 5642 5640 5638 5636
5553 5557 5560 5564 5569 5572 5576 5579 5583 5586 5593 5595 5598 5601 5604 5606 5608 5611 5613 5615 5617 5619 5620 5622 5624 5626 5627 5629 5630 5631 5632 5633 5634 5634 5634 5634 5634 5633 5632 5631 5629 5628 5626 5624
5545 5550 5553 5560 5561 5564 5567 5571 5574 5578 5582 5585 5588 5590 5593 5596 5598 5601 5603 5605 5607 5608 5610 5612 5613 5615 5616 5617 5619 5620 5620 5621 5622 5622 5623 5622 5622 5621 5620 5619 5618 5616 5614 5612
5538 5541 5544 5550 5553 5556 5559 5563 5566 5569 5572 5575 5578 5580 5583 5586 5588 5591 5593 5595 5596 5598 5600 5601 5603 5604 5605 5606 5607 5608 5609 5609 5610 5610 5611 5610 5610 5609 5608 5607 5605 5604 5602 5599
5530 5533 5537 5542 5545 5547 5551 5554 5558 5560 5563 5566 5568 5572 5575 5576 5578 5580 5583 5584 5586 5588 5590 5591 5593 5594 5594 5595 5596 5597 5597 5598 5598 5598 5599 5598 5598 5597 5596 5595 5593 5592 5590 5587
5523 5525 5529 5534 5536 5539 5544 5547 5549 5551 5554 5556 5559 5562 5565 5567 5569 5571 5573 5574 5576 5578 5579 5581 5582 5583 5584 5585 5585 5586 5586 5587 5587 5587 5587 5587 5586 5585 5584 5583 5581 5580 5578 5575
5516 5519 5525 5527 5529 5532 5534 5537 5540 5542 5545 5548 5550 5552 5555 5557 5559 5561 5563 5564 5566 5568 5569 5571 5572 5573 5573 5574 5575 5575 5575 5575 5575 5575 5575 5575 5574 5573 5572 5571 5569 5568 5566 5564
5510 5515 5517 5519 5521 5523 5525 5528 5531 5534 5536 5539 5541 5543 5545 5547 5550 5551 5553 5554 5556 5557 5559 5560 5561 5562 5563 5563 5563 5564 5564 5564 5564 5563 5563 5563 5562 5561 5560 5559 5557 5556 5554 5552
5503 5507 5510 5512 5513 5515 5518 5520 5523 5525 5528 5530 5532 5534 5536 5538 5540 5541 5543 5545 5546 5547 5549 5550 5551 5551 5552 5553 5553 5553 5553 5552 5552 5552 5552 5551 5550 5549 5549 5548 5546 5545 5543 5541
5497 5500 5502 5504 5506 5508 5510 5512 5515 5517 5519 5521 5523 5525 5527 5528 5530 5531 5533 5534 5535 5537 5538 5539 5540 5541 5541 5541 5541 5541 5541 5541 5541 5541 5540 5540 5539 5538 5537 5537 5535 5534 5532 5530
5491 5493 5495 5498 5499 5501 5503 5505 5507 5509 5511 5512 5514 5516 5517 5519 5520 5521 5523 5524 5525 5526 5528 5529 5529 5530 5530 5530 5530 5530 5531 5531 5530 5530 5530 5529 5529 5528 5527 5526 5524 5523 5521 5519
5485 5486 5488 5490 5492 5494 5495 5497 5498 5500 5502 5504 5505 5507 5508 5509 5511 5512 5513 5514 5515 5517 5518 5518 5519 5519 5519 5520 5520 5520 5520 5520 5520 5520 5519 5519 5518 5517 5517 5515 5514 5512 5510 5508
5479 5480 5482 5484 5485 5486 5487 5489 5490 5492 5493 5495 5497 5498 5499 5501 5502 5503 5504 5505 5506 5507 5508 5508 5509 5509 5509 5509 5509 5509 5509 5509 5509 5509 5509 5508 5507 5507 5506 5505 5504 5502 5499 5497
5473 5474 5476 5477 5478 5479 5479 5481 5482 5484 5485 5487 5488 5489 5491 5492 5493 5494 5495 5496 5497 5497 5498 5498 5499 5499 5499 5499 5499 5500 5500 5500 5499 5499 5498 5498 5497 5496 5496 5495 5493 5492 5489 5487
5467 5468 5469 5470 5471 5472 5472 5474 5475 5476 5477 5478 5480 5481 5482 5483 5484 5485 5486 5487 5488 5488 5488 5488 5489 5489 5489 5490 5490 5490 5490 5490 5489 5489 5488 5488 5487 5486 5486 5485 5483 5481 5480 5477
5461 5462 5463 5464 5465 5465 5466 5467 5468 5469 5470 5471 5472 5473 5474 5475 5476 5477 5478 5479 5479 5479 5479 5479 5480 5480 5480 5480 5480 5480 5480 5480 5479 5479 5478 5478 5477 5477 5476 5475 5473 5472 5470 5468
5455 5456 5457 5458 5458 5459 5460 5460 5461 5462 5463 5464 5465 5466 5467 5468 5469 5470 5470 5471 5471 5471 5471 5471 5471 5471 5471 5471 5471 5471 5471 5471 5470 5470 5469 5469 5468 5467 5466 5465 5464 5462 5461 5459
5449 5450 5451 5451 5452 5453 5453 5454 5455 5455 5456 5457 5458 5459 5460 5460 5461 5462 5462 5463 5463 5463 5463 5463 5463 5463 5463 5463 5462 5462 5462 5462 5461 5461 5460 5460 5459 5458 5457 5456 5455 5453 5452 5450
5444 5444 5445 5445 5445 5446 5447 5447 5448 5449 5449 5450 5451 5452 5453 5453 5454 5454 5454 5455 5454 5454 5454 5454 5454 5454 5454 5454 5454 5454 5454 5453 5453 5452 5451 5451 5450 5449 5448 5447 5446 5445 5443 5441
5438 5438 5438 5439 5439 5439 5440 5440 5441 5441 5442 5443 5444 5444 5445 5446 5446 5447 5447 5447 5447 5446 5446 5446 5446 5446 5446 5446 5446 5445 5445 5445 5444 5444 5443 5442 5441 5440 5440 5438 5437 5436 5434 5432
5431 5432 5432 5432 5432 5433 5433 5433 5434 5434 5435 5436 5436 5437 5438 5439 5439 5439 5439 5439 5439 5439 5438 5438 5438 5438 5438 5438 5437 5437 5437 5436 5436 5435 5435 5434 5433 5432 5431 5430 5429 5427 5426 5423
5425 5425 5425 5425 5426 5426 5426 5427 5427 5427 5428 5429 5429 5430 5431 5431 5431 5431 5431 5431 5431 5431 5430 5430 5430 5430 5430 5430 5429 5429 5429 5428 5428 5427 5427 5426 5425 5424 5423 5422 5421 5419 5417 5415
5419 5419 5419 5419 5419 5419 5419 5420 5420 5420 5421 5422 5422 5423 5424 5424 5424 5424 5424 5423 5423 5423 5423 5423 5422 5422 5422 5422 5422 5421 5421 5420 5420 5419 5419 5418 5417 5416 5415 5414 5413 5412 5410 5408
5413 5413 5413 5413 5413 5413 5413 5413 5413 5413 5414 5414 5415 5416 5416 5416 5416 5416 5416 5416 5416 5416 5415 5415 5415 5415 5415 5415 5415 5414 5414 5413 5412 5412 5411 5411 5410 5409 5408 5407 5406 5404 5403 5401
5407 5407 5407 5407 5407 5407 5406 5407 5407 5407 5407 5408 5408 5409 5409 5409 5409 5409 5409 5409 5408 5408 5408 5408 5407 5407 5407 5407 5407 5407 5406 5406 5405 5405 5404 5404 5403 5402 5401 5400 5399 5397 5396 5394
5401 5401 5401 5401 5401 5401 5401 5401 5401 5402 5402 5402 5402 5402 5402 5402 5402 5402 5401 5401 5401 5401 5400 5400 5400 5400 5400 5400 5400 5399 5399 5399 5398 5398 5397 5397 5396 5395 5394 5393 5392 5391 5389 5388